Location: Glendale
(37.4556°N, 88.6714°W)
Time: 08:57:51
(UTC+00:00)

USA 234 - Pass Details

Date: 08 December 2019
Orbit: 1099 x 1108 km, 123.0° (Epoch: 16 January)

Event Time Altitude Azimuth Distance (km) Brightness Sun altitude
Rises 11:35:29 0° 40° (NE) 3,921 6.5 -15.7°
Reaches altitude 10° 11:38:29 10° 27° (NNE) 2,963 5.6 -15.1°
Maximum altitude 11:43:24 23° 338° (NNW) 2,135 4.4 -14.2°
Enters shadow 11:46:26 17° 302° (WNW) 2,484 4.5 -13.6°
